BRO-14 (60551 NORAD) Tracking and Keplerian Element Data

This shows tracking and keplerian element data for the satellite.

Feedback or suggestion? Click here.




ElementValue
Catalog60551
NameBRO-14
Epoch Orbit849
Epoch Day286.78910863
Epoch Year2024
RAAN1.44
Inclination97.7471
Eccentricity0.0006778
Argument of Perigee353.1241
Mean Anonmoly6.9884
Mean Motion14.93484428
Decay Rate3.431E-05
L11 60551U 24149CM 24286.78910863 .00003431 00000+0 33127-3 0 9990
L22 60551 97.7471 1.4400 0006778 353.1241 6.9884 14.93484428 8493



Live tracking and technical data element details for BRO-14 (NORAD 60551). BRO-14 can be tracked NOW for your location showing map with azimuth and elevation plus other details from your city location.







IsCatalogInMostPopularTable: catalog: 60551, numindb: 4
Update: records affected: 1



GetName: 60551 BRO-14

Hit Count: updated at: Tue, 03 Dec 2024 02:14:10 GMT